Location: Bakov nad Jizerou
(50.4784°N, 14.9394°E)
Time: 17:07:19
(UTC+00:00)

Cosmos 2322 - Pass Details

Date: 27 October 2021
Orbit: 841 x 854 km, 71.0° (Epoch: 04 December)

Event Time Altitude Azimuth Distance (km) Brightness Sun altitude
Rises 19:49:57 0° 247° (WSW) 3,418 7.3 -38.6°
Reaches altitude 10° 19:52:46 10° 260° (W) 2,485 6.6 -39.0°
Enters shadow 19:56:41 26° 302° (WNW) 1,616 5.6 -39.5°
